Regional Weather Roundup
Issued by NWS

Home | Current Version | Previous Version | Graphics & Text | Print | Product List | Glossary On
Versions: 1 2 3 4 5 6 7 8 9 10 11 12 13 14 15 16 17 18 19 20 21 22 23 24 25 26 27 28 29 30 31 32 33 34 35 36 37 38 39 40 41 42 43 44 45 46 47 48 49 50
000
ASUS43 KOAX 121702
RWRNE

WEATHER ROUNDUP FOR NEBRASKA
NATIONAL WEATHER SERVICE OMAHA NE
1100 AM CST FRI FEB 12 2016

NOTES: SATELLITE DATA IS BEING USED TO AUGMENT CLOUD COVER ABOVE
       12000 FEET.
       "FAIR" INDICATES FEW OR NO CLOUDS BELOW 12,000 FEET WITH NO
       SIGNIFICANT WEATHER AND/OR OBSTRUCTIONS TO VISIBILITY.

  * THESE STATIONS DO NOT REPORT WEATHER SUCH AS RAIN...SNOW OR FOG.

NEZ001>004-019>022-054>056-121800-
NEBRASKA PANHANDLE

CITY           SKY/WX    TMP DP  RH WIND       PRES   REMARKS
SCOTTSBLUFF    CLOUDY    35  29  78 NE15      30.37R WCI  25
ALLIANCE       CLOUDY    30  29  96 NE10      30.36S WCI  21
CHADRON        CLOUDY    33  29  85 E5        30.40S WCI  29
KIMBALL        CLOUDY    46  26  44 NE5       30.33R
SIDNEY         CLOUDY    40  31  70 NE15      30.35R WCI  32
$$

NEZ057>060-069>072-079>082-121800-
SOUTHWEST NEBRASKA

CITY           SKY/WX    TMP DP  RH WIND       PRES   REMARKS
NORTH PLATTE   CLOUDY    35  29  78 N9        30.41R WCI  28
IMPERIAL       CLOUDY    33  30  88 E9        30.40R WCI  25
LEXINGTON      CLOUDY    35  29  80 N12       30.43R WCI  26
MCCOOK         CLOUDY    33  29  85 E6        30.43R WCI  28
$$

NEZ005>010-023>029-035>040-094-121800-
NORTH CENTRAL NEBRASKA

CITY           SKY/WX    TMP DP  RH WIND       PRES   REMARKS
VALENTINE      CLOUDY    24  19  81 NE8       30.46R WCI  15
AINSWORTH      CLOUDY    24  21  87 N9        30.45R WCI  14
BROKEN BOW     CLOUDY    31  27  85 N12       30.42R WCI  22
ORD            CLOUDY    25  23  92 NE13      30.46R FOG     WCI  14
$$

NEZ041-046>049-061>064-073>077-083>087-121800-
SOUTH CENTRAL NEBRASKA

CITY           SKY/WX    TMP DP  RH WIND       PRES   REMARKS
GRAND ISLAND   CLOUDY    27  23  85 NE8       30.46R WCI  19
HASTINGS       CLOUDY    31  24  75 N10       30.45R WCI  22
HEBRON         CLOUDY    30  25  80 N9        30.47R WCI  22
KEARNEY *      CLOUDY    30  25  80 N9        30.44R WCI  22
YORK           CLOUDY    27  25  93 N13       30.47R WCI  16
$$

NEZ011>018-030>034-042>045-121800-
NORTHEAST NEBRASKA

CITY           SKY/WX    TMP DP  RH WIND       PRES   REMARKS
NORFOLK        CLOUDY    22  14  71 N13       30.49R WCI  10
BLAIR          CLOUDY    23  16  74 N15G23    30.47R WCI  10
COLUMBUS *     CLOUDY    25  10  54 N14       30.49R WCI  13
FREMONT        CLOUDY    23  14  68 N10G20    30.50R WCI  12
TEKAMAH        SUNNY     22  12  65 N17       30.52R WCI   8
$$

NEZ050>053-065>068-078-088>093-121800-
SOUTHEAST NEBRASKA

CITY           SKY/WX    TMP DP  RH WIND       PRES   REMARKS
LINCOLN        CLOUDY    27  20  75 N17       30.50R WCI  14
OMAHA EPPLEY   CLOUDY    24  15  68 N22       30.49R WCI   9
BEATRICE       CLOUDY    28  22  78 N10       30.47R WCI  18
FALLS CITY     CLOUDY    29  18  63 N16       30.46R WCI  17
NEBRASKA CITY  CLOUDY    25  18  75 N16G22    30.47R WCI  12
$$

NEZ044-045-051>053-067-121800-
OMAHA AREA

CITY           SKY/WX    TMP DP  RH WIND       PRES   REMARKS
OMAHA EPPLEY   CLOUDY    24  15  68 N22       30.49R WCI   9
BLAIR          CLOUDY    23  16  74 N15G23    30.47R WCI  10
FREMONT        CLOUDY    23  14  68 N10G20    30.50R WCI  12
WAHOO          CLOUDY    24  16  72 N16       30.50R WCI  11
$$



USA.gov is the U.S. government's official web portal to all federal, state and local government web resources and services.